H1 CPF 2 NER 2024 8 29 9 242 01 glonass144 H2 2207501 9144 52984 2024 8 29 0 0 0 2024 9 1 23 45 0 900 1 1 0 0 0 1 H9 10 0 60551 0.00000 0 -8926363.260 -10198142.307 -21583704.483 10 0 60551 900.00000 0 -6200439.116 -10252933.674 -22492347.763 10 0 60551 1800.00000 0 -3401120.468 -10515059.368 -22962997.311 10 0 60551 2700.00000 0 -598263.394 -10985577.069 -22986454.296 10 0 60551 3600.00000 0 2138882.841 -11653242.741 -22562246.568 10 0 60551 4500.00000 0 4744324.148 -12494936.236 -21698639.151 10 0 60551 5400.00000 0 7157830.258 -13476607.323 -20412472.334 10 0 60551 6300.00000 0 9327199.173 -14554702.322 -18728830.476 10 0 60551 7200.00000 0 11210183.195 -15678011.008 -16680548.086 10 0 60551 8100.00000 0 12775996.742 -16789855.459 -14307563.069 10 0 60551 9000.00000 0 14006343.823 -17830527.916 -11656130.118 10 0 60551 9900.00000 0 14895923.501 -18739874.040 -8777910.200 10 0 60551 10800.00000 0 15452393.854 -19459911.833 -5728954.615 10 0 60551 11700.00000 0 15695797.872 -19937374.926 -2568604.271 10 0 60551 12600.00000 0 15657477.666 -20126072.402 641673.399 10 0 60551 13500.00000 0 15378524.795 -19988965.181 3839486.347 10 0 60551 14400.00000 0 14907834.182 -19499871.290 6962734.463 10 0 60551 15300.00000 0 14299845.498 -18644728.352 9950816.489 10 0 60551 16200.00000 0 13612068.717 -17422360.491 12745803.585 10 0 60551 17100.00000 0 12902499.125 -15844717.868 15293556.850 10 0 60551 18000.00000 0 12227031.155 -13936579.224 17544767.571 10 0 60551 18900.00000 0 11636979.884 -11734730.206 19455900.894 10 0 60551 19800.00000 0 11176813.932 -9286651.873 20990025.801 10 0 60551 20700.00000 0 10882194.252 -6648773.834 22117516.614 10 0 60551 21600.00000 0 10778400.121 -3884364.080 22816613.903 10 0 60551 22500.00000 0 10879207.399 -1061142.133 23073835.227 10 0 60551 23400.00000 0 11186265.255 1751286.788 22884228.859 10 0 60551 24300.00000 0 11688996.991 4484071.900 22251466.317 10 0 60551 25200.00000 0 12365029.004 7071723.697 21187772.231 10 0 60551 26100.00000 0 13181130.295 9454581.289 19713692.764 10 0 60551 27000.00000 0 14094623.870 11581039.682 17857706.480 10 0 60551 27900.00000 0 15055211.933 13409446.053 15655684.246 10 0 60551 28800.00000 0 16007139.489 14909587.391 13150207.415 10 0 60551 29700.00000 0 16891606.729 16063708.380 10389756.186 10 0 60551 30600.00000 0 17649329.827 16867017.559 7427782.487 10 0 60551 31500.00000 0 18223143.107 17327660.722 4321684.237 10 0 60551 32400.00000 0 18560533.277 17466162.584 1131699.921 10 0 60551 33300.00000 0 18615998.709 17314359.930 -2080255.683 10 0 60551 34200.00000 0 18353133.495 16913870.807 -5251792.245 10 0 60551 35100.00000 0 17746347.188 16314164.045 -8321257.699 10 0 60551 36000.00000 0 16782146.052 15570310.403 -11228941.158 10 0 60551 36900.00000 0 15459919.923 14740510.418 -13918240.917 10 0 60551 37800.00000 0 13792199.484 13883503.666 -16336774.068 10 0 60551 38700.00000 0 11804371.075 13055969.428 -18437405.346 10 0 60551 39600.00000 0 9533859.115 12310029.286 -20179174.368 10 0 60551 40500.00000 0 7028808.766 11690957.939 -21528102.472 10 0 60551 41400.00000 0 4346322.608 11235199.761 -22457862.875 10 0 60551 42300.00000 0 1550324.118 10968775.648 -22950300.525 10 0 60551 43200.00000 0 -1290863.501 10906148.097 -22995791.189 10 0 60551 44100.00000 0 -4107122.500 11049592.946 -22593432.440 10 0 60551 45000.00000 0 -6829221.236 11389104.642 -21751062.662 10 0 60551 45900.00000 0 -9391458.613 11902839.126 -20485107.559 10 0 60551 46800.00000 0 -11734162.062 12558075.537 -18820257.170 10 0 60551 47700.00000 0 -13805934.980 13312655.777 -16788979.750 10 0 60551 48600.00000 0 -15565560.132 14116840.532 -14430882.267 10 0 60551 49500.00000 0 -16983480.117 14915502.654 -11791930.312 10 0 60551 50400.00000 0 -18042793.886 15650564.281 -8923543.254 10 0 60551 51300.00000 0 -18739728.893 16263573.773 -5881582.967 10 0 60551 52200.00000 0 -19083570.816 16698312.682 -2725256.705 10 0 60551 53100.00000 0 -19096055.668 16903321.761 484043.542 10 0 60551 54000.00000 0 -18810251.895 16834238.626 3683941.710 10 0 60551 54900.00000 0 -18268981.702 16455848.077 6812294.149 10 0 60551 55800.00000 0 -17522849.948 15743758.377 9808397.646 10 0 60551 56700.00000 0 -16627965.315 14685632.995 12614165.227 10 0 60551 57600.00000 0 -15643450.927 13281926.271 15175246.957 10 0 60551 58500.00000 0 -14628849.841 11546092.358 17442074.438 10 0 60551 59400.00000 0 -13641534.697 9504258.934 19370809.593 10 0 60551 60300.00000 0 -12734229.987 7194379.355 20924180.521 10 0 60551 61200.00000 0 -11952750.170 4664898.432 22072189.542 10 0 60551 62100.00000 0 -11334047.390 1972986.782 22792681.156 10 0 60551 63000.00000 0 -10904649.372 -817583.804 23071760.275 10 0 60551 63900.00000 0 -10679551.730 -3638837.078 22904053.703 10 0 60551 64800.00000 0 -10661610.091 -6421163.365 22292810.598 10 0 60551 65700.00000 0 -10841456.808 -9095960.164 21249840.297 10 0 60551 66600.00000 0 -11197945.540 -11598234.680 19795288.579 10 0 60551 67500.00000 0 -11699105.257 -13869062.206 17957256.152 10 0 60551 68400.00000 0 -12303564.240 -15857799.875 15771265.797 10 0 60551 69300.00000 0 -12962385.175 -17523965.064 13279587.281 10 0 60551 70200.00000 0 -13621235.230 -18838701.152 10530431.810 10 0 60551 71100.00000 0 -14222800.778 -19785770.045 7577030.242 10 0 60551 72000.00000 0 -14709345.844 -20362030.100 4476611.787 10 0 60551 72900.00000 0 -15025306.844 -20577379.336 1289302.034 10 0 60551 73800.00000 0 -15119814.113 -20454165.927 -1923038.946 10 0 60551 74700.00000 0 -14949033.267 -20026090.321 -5098016.097 10 0 60551 75600.00000 0 -14478226.499 -19336644.756 -8173913.112 10 0 60551 76500.00000 0 -13683445.332 -18437155.585 -11090896.456 10 0 60551 77400.00000 0 -12552781.546 -17384510.822 -13792185.616 10 0 60551 78300.00000 0 -11087121.509 -16238668.844 -16225166.100 10 0 60551 79200.00000 0 -9300369.943 -15060053.633 -18342422.706 10 0 60551 80100.00000 0 -7219131.630 -13906946.945 -20102672.160 10 0 60551 81000.00000 0 -4881862.472 -12832987.985 -21471576.231 10 0 60551 81900.00000 0 -2337523.775 -11884886.670 -22422418.910 10 0 60551 82800.00000 0 356205.218 -11100447.517 -22936633.906 10 0 60551 83700.00000 0 3135082.839 -10506987.943 -23004171.840 10 0 60551 84600.00000 0 5930739.212 -10120217.992 -22623699.655 10 0 60551 85500.00000 0 8673287.918 -9943628.854 -21802628.155 10 0 60552 0.00000 0 11294006.080 -9968415.801 -20556967.149 10 0 60552 900.00000 0 13727972.482 -10173938.535 -18911010.226 10 0 60552 1800.00000 0 15916550.155 -10528698.795 -16896857.170 10 0 60552 2700.00000 0 17809614.511 -10991793.199 -14553781.320 10 0 60552 3600.00000 0 19367430.730 -11514778.954 -11927456.132 10 0 60552 4500.00000 0 20562103.829 -12043872.411 -9069056.039 10 0 60552 5400.00000 0 21378541.401 -12522386.320 -6034249.920 10 0 60552 6300.00000 0 21814889.974 -12893301.575 -2882107.653 10 0 60552 7200.00000 0 21882428.238 -13101863.573 326057.979 10 0 60552 8100.00000 0 21604923.516 -13098092.576 3527890.557 10 0 60552 9000.00000 0 21017480.423 -12839101.269 6661206.332 10 0 60552 9900.00000 0 20164932.078 -12291121.286 9665203.249 10 0 60552 10800.00000 0 19099843.343 -11431153.138 12481638.875 10 0 60552 11700.00000 0 17880211.358 -10248170.080 15055954.440 10 0 60552 12600.00000 0 16566960.950 -8743825.482 17338323.552 10 0 60552 13500.00000 0 15221340.503 -6932634.226 19284606.113 10 0 60552 14400.00000 0 13902327.319 -4841620.493 20857190.062 10 0 60552 15300.00000 0 12664150.603 -2509446.539 22025705.999 10 0 60552 16200.00000 0 11554034.693 14941.768 22767602.229 10 0 60552 17100.00000 0 10610255.632 2674097.158 23068570.511 10 0 60552 18000.00000 0 9860590.906 5404208.068 22922815.326 10 0 60552 18900.00000 0 9321225.814 8137503.502 22333162.292 10 0 60552 19800.00000 0 8996161.056 10804827.673 21311003.977 10 0 60552 20700.00000 0 8877145.547 13338279.480 19876084.044 10 0 60552 21600.00000 0 8944136.911 15673809.162 18056123.395 10 0 60552 22500.00000 0 9166270.405 17753665.965 15886294.579 10 0 60552 23400.00000 0 9503296.045 19528596.410 13408553.487 10 0 60552 24300.00000 0 9907424.209 20959702.634 10670839.913 10 0 60552 25200.00000 0 10325502.856 22019883.863 7726161.126 10 0 60552 26100.00000 0 10701435.333 22694800.940 4631575.039 10 0 60552 27000.00000 0 10978737.281 22983323.334 1447091.730 10 0 60552 27900.00000 0 11103124.840 22897439.443 -1765486.030 10 0 60552 28800.00000 0 11025024.509 22461633.327 -4943760.959 10 0 60552 29700.00000 0 10701897.811 21711753.435 -8025954.870 10 0 60552 30600.00000 0 10100281.268 20693420.363 -10952113.730 10 0 60552 31500.00000 0 9197453.888 19460040.279 -13665280.135 10 0 60552 32400.00000 0 7982659.785 18070507.504 -16112609.661 10 0 60552 33300.00000 0 6457832.247 16586693.060 -18246408.583 10 0 60552 34200.00000 0 4637786.561 15070825.216 -20025071.922 10 0 60552 35100.00000 0 2549871.379 13582872.742 -21413902.863 10 0 60552 36000.00000 0 233091.316 12178041.480 -22385796.964 10 0 60552 36900.00000 0 -2263264.053 10904490.092 -22921777.288 10 0 60552 37800.00000 0 -4881428.686 9801361.461 -23011369.672 10 0 60552 38700.00000 0 -7557331.402 8897212.777 -22652810.497 10 0 60552 39600.00000 0 -10223039.871 8208910.405 -21853082.719 10 0 60552 40500.00000 0 -12809375.508 7741035.751 -20627779.325 10 0 60552 41400.00000 0 -15248590.177 7485826.642 -19000796.840 10 0 60552 42300.00000 0 -17476992.854 7423655.866 -17003864.939 10 0 60552 43200.00000 0 -19437416.435 7524025.671 -14675921.556 10 0 60552 44100.00000 0 -21081421.648 7747034.961 -12062345.983 10 0 60552 45000.00000 0 -22371145.988 8045255.854 -9214065.526 10 0 60552 45900.00000 0 -23280720.838 8365938.788 -6186553.780 10 0 60552 46800.00000 0 -23797198.244 8653451.482 -3038740.921 10 0 60552 47700.00000 0 -23920949.563 8851847.225 168141.810 10 0 60552 48600.00000 0 -23665520.828 8907452.687 3371759.984 10 0 60552 49500.00000 0 -23056952.504 8771364.864 6509892.115 10 0 60552 50400.00000 0 -22132594.065 8401751.004 9521639.665 10 0 60552 51300.00000 0 -20939464.893 7765854.099 12348607.119 10 0 60552 52200.00000 0 -19532231.806 6841619.254 14936029.222 10 0 60552 53100.00000 0 -17970889.180 5618872.615 17233823.865 10 0 60552 54000.00000 0 -16318239.519 4100003.397 19197551.074 10 0 60552 54900.00000 0 -14637280.042 2300120.530 20789260.591 10 0 60552 55800.00000 0 -12988604.204 246677.247 21978212.997 10 0 60552 56700.00000 0 -11427925.766 -2021421.087 22741461.814 10 0 60552 57600.00000 0 -10003827.494 -4455189.486 23064286.711 10 0 60552 58500.00000 0 -8755826.916 -6997360.146 22940470.551 10 0 60552 59400.00000 0 -7712838.257 -9584530.329 22372415.746 10 0 60552 60300.00000 0 -6892093.243 -12149573.828 21371098.029 10 0 60552 61200.00000 0 -6298564.653 -14624217.703 19955858.496 10 0 60552 62100.00000 0 -5924915.817 -16941679.142 18154037.384 10 0 60552 63000.00000 0 -5751977.762 -19039254.599 16000455.772 10 0 60552 63900.00000 0 -5749733.920 -20860754.902 13536754.054 10 0 60552 64800.00000 0 -5878771.368 -22358686.007 10810598.669 10 0 60552 65700.00000 0 -6092138.069 -23496085.014 7874771.061 10 0 60552 66600.00000 0 -6337528.441 -24247934.927 4786155.374 10 0 60552 67500.00000 0 -6559705.566 -24602098.691 1604643.514 10 0 60552 68400.00000 0 -6703057.993 -24559732.809 -1608021.862 10 0 60552 69300.00000 0 -6714182.948 -24135162.366 -4789444.194 10 0 60552 70200.00000 0 -6544386.195 -23355221.863 -7877786.455 10 0 60552 71100.00000 0 -6151991.832 -22258088.699 -10812977.226 10 0 60552 72000.00000 0 -5504362.951 -20891657.686 -13537885.349 10 0 60552 72900.00000 0 -4579546.035 -19311524.481 -15999439.554 10 0 60552 73800.00000 0 -3367467.630 -17578662.498 -18149670.530 10 0 60552 74700.00000 0 -1870630.740 -15756891.014 -19946654.279 10 0 60552 75600.00000 0 -104279.435 -13910241.054 -21355337.723 10 0 60552 76500.00000 0 1903977.257 -12100330.079 -22348229.859 10 0 60552 77400.00000 0 4115068.184 -10383856.070 -22905944.459 10 0 60552 78300.00000 0 6479853.287 -8810316.560 -23017583.376 10 0 60552 79200.00000 0 8940950.041 -7420048.500 -22680952.689 10 0 60552 80100.00000 0 11434917.435 -6242671.261 -21902607.230 10 0 60552 81000.00000 0 13894706.659 -5295997.843 -20697722.522 10 0 60552 81900.00000 0 16252276.196 -4585459.425 -19089796.555 10 0 60552 82800.00000 0 18441261.891 -4104066.596 -17110187.282 10 0 60552 83700.00000 0 20399590.192 -3832907.677 -14797495.064 10 0 60552 84600.00000 0 22071925.008 -3742161.714 -12196802.425 10 0 60552 85500.00000 0 23411845.673 -3792581.764 -9358786.506 10 0 60553 0.00000 0 24383664.834 -3937384.130 -6338722.504 10 0 60553 900.00000 0 24963810.889 -4124462.025 -3195396.670 10 0 60553 1800.00000 0 25141716.611 -4298828.212 10044.861 10 0 60553 2700.00000 0 24920179.350 -4405182.104 3215293.496 10 0 60553 3600.00000 0 24315177.664 -4390491.338 6358093.717 10 0 60553 4500.00000 0 23355154.265 -4206477.850 9377453.956 10 0 60553 5400.00000 0 22079796.771 -3811902.854 12214828.694 10 0 60553 6300.00000 0 20538368.887 -3174554.069 14815248.815 10 0 60553 7200.00000 0 18787663.063 -2272851.432 17128378.657 10 0 60553 8100.00000 0 16889661.145 -1097003.900 19109480.046 10 0 60553 9000.00000 0 14909001.051 350331.093 20720265.739 10 0 60553 9900.00000 0 12910355.072 2053913.126 21929627.069 10 0 60553 10800.00000 0 10955828.358 3986315.035 22714223.119 10 0 60553 11700.00000 0 9102484.813 6108833.937 23058921.409 10 0 60553 12600.00000 0 7400101.937 8372879.902 22957082.723 10 0 60553 13500.00000 0 5889246.417 10721785.759 22410685.401 10 0 60553 14400.00000 0 4599748.894 13092964.294 21430287.101 10 0 60553 15300.00000 0 3549639.974 15420324.917 20034824.738 10 0 60553 16200.00000 0 2744590.601 17636851.111 18251255.947 10 0 60553 17100.00000 0 2177879.266 19677233.214 16114048.109 10 0 60553 18000.00000 0 1830886.983 21480448.380 13664523.666 10 0 60553 18900.00000 0 1674099.153 22992181.326 10950073.052 10 0 60553 19800.00000 0 1668572.414 24166985.546 8023249.095 10 0 60553 20700.00000 0 1767805.129 24970094.846 4940759.294 10 0 60553 21600.00000 0 1919933.048 25378809.137 1762374.454 10 0 60553 22500.00000 0 2070157.732 25383395.779 -1450225.781 10 0 60553 23400.00000 0 2163305.117 24987467.696 -4634648.388 10 0 60553 24300.00000 0 2146405.720 24207821.337 -7729000.156 10 0 60553 25200.00000 0 1971186.564 23073740.123 -10673094.716 10 0 60553 26100.00000 0 1596368.305 21625791.661 -13409629.314 10 0 60553 27000.00000 0 989668.899 19914168.435 -15885307.707 10 0 60553 27900.00000 0 129427.370 17996641.083 -18051886.572 10 0 60553 28800.00000 0 -994222.845 15936209.911 -19867124.193 10 0 60553 29700.00000 0 -2378682.494 13798553.150 -21295612.279 10 0 60553 30600.00000 0 -4008747.325 11649379.072 -22309474.064 10 0 60553 31500.00000 0 -5857008.822 9551793.238 -22888914.580 10 0 60553 32400.00000 0 -7884779.620 7563791.420 -23022611.978 10 0 60553 33300.00000 0 -10043506.093 5735983.367 -22707941.984 10 0 60553 34200.00000 0 -12276609.834 4109642.794 -21951030.890 10 0 60553 35100.00000 0 -14521681.465 2715165.022 -20766635.934 10 0 60553 36000.00000 0 -16712935.203 1570996.370 -19177855.328 10 0 60553 36900.00000 0 -18783821.350 683079.355 -17215673.664 10 0 60553 37800.00000 0 -20669687.072 44835.782 -14918351.757 10 0 60553 38700.00000 0 -22310373.715 -362313.085 -12330673.118 10 0 60553 39600.00000 0 -23652641.432 -567912.897 -9503062.313 10 0 60553 40500.00000 0 -24652319.252 -610974.649 -6490593.056 10 0 60553 41400.00000 0 -25276090.470 -538070.519 -3351906.204 10 0 60553 42300.00000 0 -25502838.686 -401109.462 -148059.676 10 0 60553 43200.00000 0 -25324498.595 -254888.349 3058666.352 10 0 60553 44100.00000 0 -24746376.831 -154523.718 6205984.885 10 0 60553 45000.00000 0 -23786930.416 -152873.878 9232813.851 10 0 60553 45900.00000 0 -22477013.530 -298061.107 12080460.199 10 0 60553 46800.00000 0 -20858625.509 -631198.988 14693753.338 10 0 60553 47700.00000 0 -18983213.531 -1184420.800 17022106.280 10 0 60553 48600.00000 0 -16909601.823 -1979291.854 19020484.665 10 0 60553 49500.00000 0 -14701634.239 -3025672.284 20650266.008 10 0 60553 50400.00000 0 -12425628.469 -4321077.784 21879973.808 10 0 60553 51300.00000 0 -10147747.311 -5850565.021 22685873.766 10 0 60553 52200.00000 0 -7931395.262 -7587146.783 23052421.942 10 0 60553 53100.00000 0 -5834747.295 -9492720.079 22972557.360 10 0 60553 54000.00000 0 -3908510.772 -11519469.492 22447834.256 10 0 60553 54900.00000 0 -2194011.771 -13611688.646 21488391.854 10 0 60553 55800.00000 0 -721683.671 -15707945.499 20112762.203 10 0 60553 56700.00000 0 489980.579 -17743503.015 18347519.343 10 0 60553 57600.00000 0 1434970.048 -19652896.114 16226775.661 10 0 60553 58500.00000 0 2119769.458 -21372558.980 13791534.046 10 0 60553 59400.00000 0 2562844.751 -22843394.332 11088907.038 10 0 60553 60300.00000 0 2793622.274 -24013178.130 8171216.713 10 0 60553 61200.00000 0 2851004.317 -24838699.427 5094991.562 10 0 60553 62100.00000 0 2781483.265 -25287545.546 1919878.765 10 0 60553 63000.00000 0 2636933.651 -25339457.111 -1292507.709 10 0 60553 63900.00000 0 2472175.240 -24987195.002 -4479781.124 10 0 60553 64800.00000 0 2342410.360 -24236881.585 -7579994.902 10 0 60553 65700.00000 0 2300644.351 -23107800.488 -10532850.578 10 0 60553 66600.00000 0 2395199.155 -21631662.001 -13280876.658 10 0 60553 67500.00000 0 2667426.429 -19851363.754 -15770554.730 10 0 60553 68400.00000 0 3149718.391 -17819297.751 -17953370.141 10 0 60553 69300.00000 0 3863902.159 -15595274.112 -19786765.931 10 0 60553 70200.00000 0 4820087.200 -13244148.185 -21234980.762 10 0 60553 71100.00000 0 6016016.339 -10833250.269 -22269753.910 10 0 60553 72000.00000 0 7436949.415 -8429725.587 -22870883.020 10 0 60553 72900.00000 0 9056086.052 -6097895.926 -23026623.431 10 0 60553 73800.00000 0 10835511.117 -3896753.368 -22733920.929 10 0 60553 74700.00000 0 12727624.144 -1877690.960 -21998473.216 10 0 60553 75600.00000 0 14676993.414 -82565.035 -20834618.738 10 0 60553 76500.00000 0 16622557.231 1457830.191 -19265054.993 10 0 60553 77400.00000 0 18500080.069 2724812.625 -17320391.844 10 0 60553 78300.00000 0 20244760.305 3712343.981 -15038548.751 10 0 60553 79200.00000 0 21793879.712 4427022.313 -12464007.969 10 0 60553 80100.00000 0 23089383.009 4887537.414 -9646938.825 10 0 60553 81000.00000 0 24080278.681 5123613.988 -6642210.784 10 0 60553 81900.00000 0 24724759.992 5174489.261 -3508315.404 10 0 60553 82800.00000 0 24991956.976 5086991.358 -306219.096 10 0 60553 83700.00000 0 24863246.046 4913301.614 2901830.004 10 0 60553 84600.00000 0 24333062.695 4708497.122 6053517.010 10 0 60553 85500.00000 0 23409183.931 4527978.830 9087672.751 10 0 60554 0.00000 0 22112469.809 4424894.927 11945459.510 10 0 60554 900.00000 0 20476075.103 4447668.873 14571508.511 10 0 60554 1800.00000 0 18544166.946 4637736.735 16914983.559 10 0 60554 2700.00000 0 16370200.524 5027588.797 18930556.102 10 0 60554 3600.00000 0 14014826.777 5639197.750 20579269.993 10 0 60554 4500.00000 0 11543518.752 6482898.961 21829282.095 10 0 60554 5400.00000 0 9024014.960 7556769.497 22656465.521 10 0 60554 6300.00000 0 6523685.044 8846531.780 23044865.268 10 0 60554 7200.00000 0 4106925.812 10325986.124 22986998.579 10 0 60554 8100.00000 0 1832694.040 11957954.662 22483995.132 10 0 60554 9000.00000 0 -247723.383 13695698.266 21545574.805 10 0 60554 9900.00000 0 -2092611.211 15484748.651 20189863.437 10 0 60554 10800.00000 0 -3671322.116 17265080.787 18443049.704 10 0 60554 11700.00000 0 -4965306.702 18973536.593 16338888.859 10 0 60554 12600.00000 0 -5968635.333 20546400.267 13918061.788 10 0 60554 13500.00000 0 -6687990.718 21922018.926 11227400.455 10 0 60554 14400.00000 0 -7142131.906 23043359.880 8318993.335 10 0 60554 15300.00000 0 -7360852.192 23860397.849 5249186.954 10 0 60554 16200.00000 0 -7383474.652 24332231.997 2077501.865 10 0 60554 17100.00000 0 -7256948.420 24428843.358 -1134516.631 10 0 60554 18000.00000 0 -7033625.919 24132417.790 -4324491.002 10 0 60554 18900.00000 0 -6768814.942 23438177.537 -7430424.106 10 0 60554 19800.00000 0 -6518209.391 22354684.874 -10391907.987 10 0 60554 20700.00000 0 -6335307.952 20903603.460 -13151304.778 10 0 60554 21600.00000 0 -6268930.814 19118925.893 -15654875.988 10 0 60554 22500.00000 0 -6360940.674 17045698.531 -17853837.425 10 0 60554 23400.00000 0 -6644265.777 14738295.999 -19705318.386 10 0 60554 24300.00000 0 -7141310.075 12258316.900 -21173205.712 10 0 60554 25200.00000 0 -7862819.209 9672188.323 -22228855.656 10 0 60554 26100.00000 0 -8807251.704 7048579.112 -22851659.156 10 0 60554 27000.00000 0 -9960683.275 4455729.956 -23029449.108 10 0 60554 27900.00000 0 -11297249.533 1958811.817 -22758741.407 10 0 60554 28800.00000 0 -12780109.370 -382576.950 -22044804.840 10 0 60554 29700.00000 0 -14362889.215 -2516670.376 -20901558.341 10 0 60554 30600.00000 0 -15991547.748 -4401457.486 -19351297.546 10 0 60554 31500.00000 0 -17606582.747 -6006187.904 -17424256.042 10 0 60554 32400.00000 0 -19145487.046 -7312398.395 -15158010.026 10 0 60554 33300.00000 0 -20545349.921 -8314418.605 -12596738.295 10 0 60554 34200.00000 0 -21745493.862 -9019336.341 -9790352.493 10 0 60554 35100.00000 0 -22690035.282 -9446425.799 -6793515.255 10 0 60554 36000.00000 0 -23330260.873 -9626064.885 -3664566.153 10 0 60554 36900.00000 0 -23626719.213 -9598189.414 -464377.355 10 0 60554 37800.00000 0 -23550939.587 -9410351.596 2744837.811 10 0 60554 38700.00000 0 -23086705.775 -9115466.679 5900739.335 10 0 60554 39600.00000 0 -22230831.747 -8769344.659 8942073.679 10 0 60554 40500.00000 0 -20993407.351 -8428112.590 11809861.646 10 0 60554 41400.00000 0 -19397504.466 -8145637.152 14448537.807 10 0 60554 42300.00000 0 -17478356.708 -7971056.586 16807019.666 10 0 60554 43200.00000 0 -15282047.602 -7946525.960 18839686.596 10 0 60554 44100.00000 0 -12863762.349 -8105270.291 20507250.595 10 0 60554 45000.00000 0 -10285676.060 -8470026.820 21777503.319 10 0 60554 45900.00000 0 -7614565.886 -9051941.177 22625926.340 10 0 60554 46800.00000 0 -4919245.324 -9849963.273 23036154.230 10 0 60554 47700.00000 0 -2267925.942 -10850767.922 23000282.705 10 0 60554 48600.00000 0 274385.730 -12029203.698 22519016.788 10 0 60554 49500.00000 0 2648350.018 -13349251.765 21601656.585 10 0 60554 50400.00000 0 4802514.398 -14765455.558 20265920.998 10 0 60554 51300.00000 0 6695201.897 -16224762.803 18537612.324 10 0 60554 52200.00000 0 8295990.704 -17668704.346 16450127.373 10 0 60554 53100.00000 0 9586724.625 -19035820.110 14043823.427 10 0 60554 54000.00000 0 10562013.132 -20264231.974 11365249.962 10 0 60554 54900.00000 0 11229200.610 -21294256.835 8466259.641 10 0 60554 55800.00000 0 11607806.273 -22070950.843 5403014.549 10 0 60554 56700.00000 0 11728458.181 -22546478.136 2234905.917 10 0 60554 57600.00000 0 11631366.050 -22682204.095 -976592.473 10 0 60554 58500.00000 0 11364396.950 -22450424.199 -4169115.238 10 0 60554 59400.00000 0 10980835.048 -21835654.394 -7280617.619 10 0 60554 60300.00000 0 10536920.106 -20835427.061 -10250585.097 10 0 60554 61200.00000 0 10089269.161 -19460557.284 -13021216.267 10 0 60554 62100.00000 0 9692291.060 -17734866.419 -15538555.274 10 0 60554 63000.00000 0 9395704.066 -15694372.859 -17753550.920 10 0 60554 63900.00000 0 9242262.620 -13385982.483 -19623021.054 10 0 60554 64800.00000 0 9265790.550 -10865732.475 -21110502.684 10 0 60554 65700.00000 0 9489605.098 -8196661.146 -22186970.678 10 0 60554 66600.00000 0 9925399.594 -5446392.270 -22831410.480 10 0 60554 67500.00000 0 10572633.053 -2684534.543 -23031233.331 10 0 60554 68400.00000 0 11418453.468 19995.479 -22782525.574 10 0 60554 69300.00000 0 12438158.816 2601615.242 -22090126.989 10 0 60554 70200.00000 0 13596176.901 5000572.732 -20967536.483 10 0 60554 71100.00000 0 14847523.018 7165193.721 -19436646.920 10 0 60554 72000.00000 0 16139674.029 9053786.200 -17527314.304 10 0 60554 72900.00000 0 17414779.629 10636123.140 -15276769.873 10 0 60554 73800.00000 0 18612117.131 11894442.499 -12728886.872 10 0 60554 74700.00000 0 19670685.688 12823923.956 -9933316.806 10 0 60554 75600.00000 0 20531829.858 13432624.034 -6944512.659 10 0 60554 76500.00000 0 21141781.218 13740874.298 -3820658.915 10 0 60554 77400.00000 0 21454010.379 13780170.181 -622530.174 10 0 60554 78300.00000 0 21431289.831 13591599.356 2587698.454 10 0 60554 79200.00000 0 21047380.519 13223878.003 5747665.235 10 0 60554 80100.00000 0 20288271.374 12731079.793 8796035.551 10 0 60554 81000.00000 0 19152919.954 12170154.893 11673691.528 10 0 60554 81900.00000 0 17653463.640 11598344.761 14324874.374 10 0 60554 82800.00000 0 15814893.065 11070602.295 16698257.485 10 0 60554 83700.00000 0 13674201.914 10637126.113 18747930.270 10 0 60554 84600.00000 0 11279048.882 10341112.394 20434274.637 10 0 60554 85500.00000 0 8685987.555 10216818.140 21724718.444 99